Regional Weather Roundup
Issued by NWS Boston, MA

Current Version | Previous Version | Text Only | Print | Product List | Glossary Off
Versions: 1 2 3 4 5 6 7 8 9 10 11 12 13 14 15 16 17 18 19 20 21 22 23 24 25 26 27 28 29 30 31 32 33 34 35 36 37 38 39 40 41 42 43 44 45 46 47 48 49 50
000 ASUS41 KBOX 200410 RWRBOX REGIONAL WEATHER ROUNDUP NATIONAL WEATHER SERVICE BOSTON/NORTON MA 1100 PM EST SAT JAN 19 2019 NOTE: "FAIR" INDICATES FEW OR NO CLOUDS BELOW 12,000 FEET WITH NO SIGNIFICANT WEATHER AND/OR OBSTRUCTIONS TO VISIBILITY. MAZALL-200500- EASTERN MASSACHUSETTS CITY SKY/WX TMP DP RH WIND PRES REMARKS BOSTON LGT SNOW 32 29 88 E21 30.14F VSB 1 WCI 20 BEVERLY LGT SNOW 29 24 82 E9 30.15F VSB 1 WCI 20 LAWRENCE LGT SNOW 27 24 89 NE12G18 30.17F FOG WCI 17 BEDFORD LGT SNOW 27 24 89 NE9 30.12F FOG WCI 18 BLUE HILL N/A 28 27 96 E16G24 30.07S WCI 16 NORWOOD LGT SNOW 32 30 92 NE7 30.12F VSB 3/4 WCI 26 MARSHFIELD MIX PCPN 34 32 93 E12G24 30.12S WCI 25 PLYMOUTH LGT SNOW 33 30 88 E12 30.10F FOG WCI 24 TAUNTON LGT SNOW 33 31 92 VRB3 30.09F VSB 3/4 NEW BEDFORD LGT SNOW 32 32 100 NE7 30.08R FOG WCI 26 $$ MAZALL-200500- CAPE COD AND THE ISLANDS CITY SKY/WX TMP DP RH WIND PRES REMARKS FALMOUTH CLOUDY 32 32 100 E14G22 30.07F FOG WCI 22 HYANNIS CLOUDY 35 32 88 E9G18 30.05F FOG WCI 28 CHATHAM CLOUDY 35 32 88 E14G28 30.09F WCI 26 PROVINCETOWN LGT SNOW 32 30 92 E18G28 30.12F FOG WCI 20 NANTUCKET MIX PCPN 36 35 96 E18 30.05F FOG WCI 26 MARTHAS VNYRD CLOUDY 36 35 96 E16 30.05F WCI 26 $$ MAZALL-200500- CENTRAL AND WESTERN MASSACHUSETTS CITY SKY/WX TMP DP RH WIND PRES REMARKS WORCESTER LGT SNOW 23 22 96 NE9 30.05F VSB 3/4 WCI 13 FITCHBURG LGT SNOW 24 21 88 E5 30.12F VSB 3/4 WCI 18 ORANGE LGT SNOW 25 21 85 VRB3 30.09F VSB 3/4 SPRINGFIELD LGT SNOW 27 23 86 NE9 30.04F FOG WCI 17 WESTFIELD LGT SNOW 26 24 92 N8 30.04F FOG WCI 18 NORTH ADAMS LGT SNOW 23 21 92 E18G26 30.01F VSB 3/4 WCI 9 PITTSFIELD LGT SNOW 24 19 81 E12G18 29.94F VSB 1 WCI 13 $$ RIZALL-200500- RHODE ISLAND CITY SKY/WX TMP DP RH WIND PRES REMARKS PROVIDENCE LGT SNOW 31 30 96 NE6 30.09F VSB 1 WCI 25 NEWPORT LGT SNOW 33 32 96 E12 30.04F FOG WCI 24 BLOCK ISLAND LGT RAIN 39 36 89 E14G24 N/A WCI 31 SMITHFIELD SNOW 28 27 96 NE7 30.07F VSB 1/2 WCI 21 WESTERLY LGT SNOW 34 32 92 NE7 30.02F FOG WCI 28 $$ CTZALL-200500- CONNECTICUT CITY SKY/WX TMP DP RH WIND PRES REMARKS BRADLEY INTL LGT SNOW 27 26 96 NE12 30.03F VSB 3/4 WCI 17 HARTFORD LGT SNOW 29 27 92 NE12 30.00F VSB 3/4 WCI 19 BRIDGEPORT LGT SNOW 32 30 92 NE16G24 29.93F FOG WCI 21 DANBURY LGT SNOW 29 26 89 E12 29.92F FOG WCI 19 GROTON FLURRIES 33 31 92 NE16 29.99F WCI 23 NEW HAVEN LGT SNOW 32 29 88 NE15G22 29.94F VSB 3/4 WCI 22 CHESTER LGT SNOW 30 28 93 E9 29.96F WCI 22 MERIDEN SNOW 29 27 92 NE9 29.98F VSB 1/2 WCI 20 WILLIMANTIC LGT SNOW 29 28 96 NE9 30.04F FOG WCI 20 OXFORD LGT SNOW 27 26 96 NE14G21 29.93F VSB 1 WCI 16 $$ MEZ002-015-021-024-NHZ003-005-008-011-012-014-VTZ005-008-200500- NORTHERN NEW ENGLAND CITY SKY/WX TMP DP RH WIND PRES REMARKS PORTLAND ME LGT SNOW 14 10 84 NE12 30.26F FOG WCI 0 BANGOR ME LGT SNOW 5 0 79 NE9 30.36S WCI -9 CONCORD NH LGT SNOW 16 11 80 NE13 30.19F WCI 2 MANCHESTER NH LGT SNOW 23 19 85 NE8 30.15F FOG WCI 14 NASHUA NH LGT SNOW 24 23 96 NE6 30.16F FOG WCI 17 PORTSMOUTH NH LGT SNOW 18 14 84 N12 30.18 FOG WCI 5 JAFFREY NH LGT SNOW 22 19 89 VRB5 30.07F FOG WCI 16 KEENE NH LGT SNOW 25 19 80 VRB5 30.10F FOG WCI 19 BURLINGTON VT LGT SNOW -6 -12 75 N9 30.17F WCI -23 MT. WASHINGTON SNOW 3 3 100 SW29G40 N/A VSB 3/16WCI -21 $$ NYZ052-076-200500- EASTERN NEW YORK CITY SKY/WX TMP DP RH WIND PRES REMARKS ALBANY SNOW 8 1 73 N9 30.05F VSB 1/2 WCI -5 NEW YORK CITY SLEET 34 32 92 E14 29.89F FOG WCI 25 $$ ANZALL-200500- MARINE OBSERVATIONS STATION/POSITION TIME TEMP WIND PRES VSBY WAVE AIR SEA DIR/SP/G HT/PER (UTC) (F) (DEG/KT/KT) (MB) (MI) (FT/S) BOSTON BUOY 0350 32 42 70/ 23/ 27 1019.4F 6/ 6 BUZZARDS BAY 0300 35 90/ 25/ 29 1018.2F NANTUCKET SOUND 0350 36 36 100/ 21/ 27 1018.0 4/ 4 MASS BAY-STELLWA 0304 31 42 90/ 21/ 27 1020.5F 1 3/4 6/ 5 ISLE OF SHOALS 0300 27 80/ 23/ 26 1022.2F S OF BLOCK IS 0330 44 N/A 6/ 6 $$ ......................KEY......................... SKY/WX - SKY CONDITION/PRESENT WEATHER TMP - TEMPERATURE IN FAHRENHEIT DWPT - DEWPOINT IN FAHRENHEIT RH - RELATIVE HUMIDITY IN PERCENT WIND - DIRECTION AND SPEED IN MPH PRES - MEAN SEA LEVEL PRESSURE IN INCHES OF HG WCI - WIND CHILL INDEX VSB - VISIBILITY IN MILES HX - HEAT INDEX TC - TEMPERATURE IN CELSIUS VRB - VARIABLE WIND DIRECTION N/A - NOT AVAILABLE

USA.gov is the U.S. government's official web portal to all federal, state and local government web resources and services.